Flag for Norway Weather past 2 weeks in Nærbø, Norway

Now
36 °F

Chilly.


Feels Like: 28 °F
Forecast: 37 / 44 °F
Wind: 12 mph from Northwest

Location: Obrestad

Current Time: Apr 1, 2015 at 8:52:56 PM

Latest Report: Apr 1, 2015 at 8:00 PM


Visibility: N/A

Pressure: 29.64 "Hg

Humidity: 80%

Dew point: 30 °F

Location of NærbøLocation

Historic Weather in Nærbø — Graph

°F

Nærbø temperature yesterday

Maximum temperature yesterday: 41 °F (at 11:00 AM)
Minimum temperature yesterday: 36 °F (at 2:00 AM)
Average temperature yesterday: 38 °F

Past Weeks' High & Low Weather Summary

 TemperatureHumidityPressure
High47 °F (Mar 17, 6:00 PM)100% (Mar 21, 1:00 AM)30.52 "Hg (Mar 21, 1:00 AM)
Low33 °F (Mar 26, 5:00 AM)40% (Mar 21, 2:00 PM)28.91 "Hg (Mar 31, 6:00 AM)
Average40 °F85%29.80 "Hg
* Reported Mar 17 6:00 PM — Apr 1 7:00 PM, Nærbø, Weather by CustomWeather, © 2015

Note: Actual official high and low records may vary slightly from our data, if they occured in-between our weather recording intervals... More about our weather records

Advertising

Nærbø weather history for previous 24 hours

 ConditionsComfort  
Time TempWeatherWind HumidityBarometerVisibility
7:00 PM
Wed, Apr 1
38 °FChilly.10 mph82%29.64 "HgN/A
6:00 PM37 °FChilly.12 mph80%29.64 "HgN/A
5:00 PM39 °FChilly.10 mph70%29.63 "HgN/A
4:00 PM38 °FChilly.13 mph79%29.63 "HgN/A
3:00 PM39 °FChilly.14 mph70%29.62 "HgN/A
2:00 PM40 °FChilly.15 mph65%29.62 "HgN/A
1:00 PM39 °FChilly.17 mph63%29.61 "HgN/A
12:00 PM39 °FChilly.18 mph62%29.59 "HgN/A
11:00 AM39 °FChilly.20 mph66%29.55 "HgN/A
10:00 AM39 °FChilly.21 mph64%29.53 "HgN/A
9:00 AM39 °FChilly.22 mph61%29.47 "HgN/A
8:00 AM39 °FChilly.22 mph73%29.44 "HgN/A
7:00 AM39 °FChilly.22 mph73%29.41 "HgN/A
6:00 AM39 °FChilly.18 mph84%29.38 "HgN/A
4:00 AM39 °FChilly.13 mph85%29.32 "HgN/A
3:00 AM39 °FChilly.3 mph90%29.29 "HgN/A
2:00 AM36 °FChilly.6 mph92%29.29 "HgN/A
1:00 AM37 °FChilly.12 mph88%29.29 "HgN/A
12:00 AM38 °FChilly.9 mph85%29.26 "HgN/A
10:00 PM
Tue, Mar 31
37 °FChilly.12 mph91%29.26 "HgN/A
9:00 PM39 °FChilly.5 mph82%29.23 "HgN/A
8:00 PM38 °FChilly.6 mph90%29.21 "HgN/A
Weather by CustomWeather, © 2015

See weather overviewHow to use our weather pages